Regional Weather Roundup
Issued by NWS

Home | Current Version | Previous Version | Text Only | Print | Product List | Glossary On
Versions: 1 2 3 4 5 6 7 8 9 10 11 12 13 14 15 16 17 18 19 20 21 22 23 24 25 26 27 28 29 30 31 32 33 34 35 36 37 38 39 40 41 42 43 44 45 46 47 48 49 50
000
ASUS45 KBOU 250807
RWRCO

WEATHER ROUNDUP FOR COLORADO
NATIONAL WEATHER SERVICE DENVER/BOULDER CO
200 AM MDT MON SEP 25 2017

NOTE: "FAIR" INDICATES FEW OR NO CLOUDS BELOW 12000 FEET WITH NO
SIGNIFICANT WEATHER AND/OR OBSTRUCTIONS TO VISIBILITY.

COZ001>005-013-030-031-250900-
...NORTHWEST COLORADO...

CITY           SKY/WX    TMP DP  RH WIND       PRES   REMARKS
CRAIG          FAIR      31  27  85 CALM      30.11R
HAYDEN         FAIR      32  28  85 SE3       30.13R
MEEKER         FAIR      32  29  88 CALM      30.11R
RABBIT EARS PA FAIR      28  23  80 SW7       30.17R WCI  21
STEAMBOAT SPGS FAIR      31  29  94 CALM      30.11S
WALDEN         FAIR      32  27  80 CALM      30.13S
$$

COZ006>008-011-250900-
...WEST CENTRAL VALLEYS...

CITY           SKY/WX    TMP DP  RH WIND       PRES   REMARKS
GRAND JUNCTION FAIR      38  30  73 CALM      30.05S
MONTROSE       FAIR      37  27  67 SE7       30.10S
EAGLE          FAIR      33  25  72 SE6       30.14R WCI  28
RIFLE          FAIR      39  31  72 CALM      30.09R
DELTA          NOT AVBL
NUCLA          FAIR      36  23  60 E5        30.12R
$$

COZ017>023-064>068-250900-
...SOUTHWEST COLORADO...

CITY           SKY/WX    TMP DP  RH WIND       PRES   REMARKS
DURANGO        FAIR      33  24  69 N5        30.06R WCI  29
CORTEZ         FAIR      31  26  82 NE3       30.06S
PAGOSA SPRINGS MOCLDY    39  29  68 CALM      30.09S
TELLURIDE      FAIR      31  21  67 SE7       30.16S WCI  24
WOLF CREEK PAS CLOUDY    28  18  64 S15G22    30.25F WCI  17
$$

COZ009-010-012-014-032>034-037-058>063-250900-
...CENTRAL COLORADO...

CITY           SKY/WX    TMP DP  RH WIND       PRES   REMARKS
ASPEN          FAIR      31  22  69 S6        30.12S WCI  25
BUENA VISTA    MOCLDY    40  26  56 NW10      30.09F
COPPER MTN     FAIR      32  18  55 MISG      30.21S
BERTHOUD PASS  FAIR      19  10  68 SW9G16    30.22S WCI   9
COTTONWOOD PAS MOCLDY    43  19  39 W3        30.14S
GUNNISON       FAIR      27  19  72 CALM      30.13F
KREMMLING      FAIR      36  28  75 CALM      30.13R
LEADVILLE      FAIR      26  20  77 SE5       30.15S WCI  20
MONARCH PASS   CLOUDY    27  16  63 W18       30.29F WCI  13
SALIDA         MOCLDY    45  25  46 CALM      30.15S
SUNLIGHT       FAIR      25  19  80 SW5       30.22S WCI  19
WILKERSON PASS FAIR      30  21  69 S6        30.22F WCI  24
$$

COZ069>075-250900-
...SAN LUIS VALLEY/SANGRE DE CRISTO MOUNTAINS...

CITY           SKY/WX    TMP DP  RH WIND       PRES   REMARKS
ALAMOSA        MOCLDY    35  27  72 W5        30.07R WCI  31
DEL NORTE      CLOUDY    39  24  54 W5        30.10R
LA VETA PASS   CLOUDY    39  19  45 SW14      30.26R
SAGUACHE       CLOUDY    41  21  45 NW10      30.10R
$$

COZ035-036-038>040-250900-
...NORTHERN COLORADO FRONT RANGE...

CITY           SKY/WX    TMP DP  RH WIND       PRES   REMARKS
DENVER INTL AP DRIZZLE   45  43  93 N10       30.08R FOG
DMNS CITY PARK   N/A     46  46 100 N8G20     30.07S
AURORA         CLOUDY    46  46 100 N6        30.08S
FRONT RANGE AP CLOUDY    46  46 100 N8        30.08S
ERIE MUNI ARPT CLOUDY    46  43  91 CALM      30.14S
BOULDER MUN AP CLOUDY    46  45  93 CALM      30.09R
CENTENNIAL     CLOUDY    46  45  96 N8        30.07F
BROOMFIELD     CLOUDY    45  43  93 N9        30.10R
FORT COLLINS   FAIR      42  40  92 W3        30.09R
LONGMONT       NOT AVBL
$$

COZ041-046-047-076>085-087-088-250900-
...PIKES PEAK/PALMER DIVIDE AND SOUTHERN FOOTHILLS...

CITY           SKY/WX    TMP DP  RH WIND       PRES   REMARKS
COLO. SPRINGS  MOCLDY    48  43  82 N16       30.05F
A. F. ACADEMY  CLOUDY    46  43  91 NW9       30.07R
SCHRIEVER AFB  MOCLDY    46  43  90 MISG      30.04F
CHEYENNE MTN   MOCLDY    44  40  86 NW17G24   30.01F
ELLICOTT       MOCLDY   N/A N/A N/A NE13      30.03F
FALCON         CLOUDY    44  43  95 N7        30.08F
FORT CARSON    MOCLDY    48  45  88 N14       30.02F
LIMON            N/A    N/A N/A N/A MISG        N/A
MONUMENT HILL  FOG       41  41 100 N8        30.10S VSB 3/4
CANON CITY     CLOUDY    52  52 100 NE6       30.00F
WALSENBURG     CLOUDY    50  50 100 CALM      30.02R VSB 1/4
TRINIDAD       CLOUDY    51  50  96 NE9       30.02R FOG
$$

COZ042>045-048>051-090-091-250900-
...NORTHEAST COLORADO...

CITY           SKY/WX    TMP DP  RH WIND       PRES   REMARKS
GREELEY ARPT   MOCLDY    46  43  89 N6        30.08R
AKRON          LGT RAIN  47  45  93 NE13      30.05F FOG
BURLINGTON     CLOUDY    51  50  96 N9        30.02R
WRAY           CLOUDY   N/A N/A N/A N7        30.04S
YUMA           CLOUDY    46  46 100 N10       30.04F FOG
STERLING       CLOUDY    46  46 100 N7        30.07R
HOLYOKE        DRIZZLE   52  48  87 N12       30.06S
FORT MORGAN    CLOUDY    47  45  94 N14       30.08R FOG
$$

COZ086-089-092>099-250900-
...SOUTHEAST COLORADO...

CITY           SKY/WX    TMP DP  RH WIND       PRES   REMARKS
PUEBLO         CLOUDY    55  49  80 CALM      29.99S
LA JUNTA       CLOUDY    54  52  93 NE9       30.00R FOG
LAMAR          CLOUDY    55  53  93 N7        29.95S
SPRINGFIELD      N/A     53  32  44 N15       29.96R
$$



USA.gov is the U.S. government's official web portal to all federal, state and local government web resources and services.